FW2520 Weather Reports


time (UTC)temp
C
wind
direction
speed
KPH
gust
KPH
rain 1hr
cm
rain 24hr
cm
rain mn
cm
humidity
%
barometer
mb
20260505063019 15 217 0.0 9.7 0.00 0.00 0.00 44 1016.2
20260505061518 15 151 3.2 11.3 0.00 0.00 0.00 43 1016.3
20260505060027 15 148 3.2 11.3 0.00 0.00 0.00 41 1016.3
20260505054531 16 137 0.0 6.4 0.00 0.00 0.00 41 1016.4
20260505053017 16 176 0.0 9.7 0.00 0.00 0.00 39 1016.3
20260505051517 17 238 1.6 8.0 0.00 0.00 0.00 38 1016.3
20260505041515 17 187 1.6 6.4 0.00 0.00 0.00 36 1016.5
20260505040016 18 146 0.0 6.4 0.00 0.00 0.00 35 1016.6
20260505034515 18 146 1.6 12.9 0.00 0.00 0.00 34 1016.7
20260505033019 18 263 3.2 9.7 0.00 0.00 0.00 33 1016.7
20260505031515 18 179 1.6 8.0 0.00 0.00 0.00 33 1016.6
20260505030022 17 157 1.6 9.7 0.00 0.00 0.00 35 1016.7
20260505024514 17 159 1.6 6.4 0.00 0.00 0.00 35 1016.6
20260505023015 18 159 0.0 1.6 0.00 0.00 0.00 34 1016.5
20260505021514 18 159 0.0 1.6 0.00 0.00 0.00 32 1016.4
20260505020014 19 159 0.0 4.8 0.00 0.00 0.00 32 1016.4
20260505014516 20 159 1.6 4.8 0.00 0.00 0.00 29 1016.2
20260505013014 20 159 1.6 8.0 0.00 0.00 0.00 28 1016.1
20260505011518 21 171 0.0 4.8 0.00 0.00 0.00 26 1015.8
20260505010012 21 209 1.6 6.4 0.00 0.00 0.00 25 1015.8
20260505004523 21 207 1.6 4.8 0.00 0.00 0.00 24 1015.6
20260505003011 22 205 0.0 3.2 0.00 0.00 0.00 23 1015.4
20260505001511 22 199 0.0 6.4 0.00 0.00 0.00 21 1015.3
20260505000017 22 213 1.6 9.7 0.00 0.00 0.00 21 1015.3
20260504234522 23 227 0.0 9.7 0.00 0.00 0.00 20 1015.1
20260504233010 23 239 1.6 8.0 0.00 0.00 0.00 20 1014.9
20260504231530 23 148 3.2 14.5 0.00 0.00 0.00 18 1014.8
20260504230011 24 149 3.2 14.5 0.00 0.00 0.00 18 1014.9
20260504224509 24 150 4.8 14.5 0.00 0.00 0.00 16 1014.9
20260504223009 25 212 3.2 14.5 0.00 0.00 0.00 14 1014.9
20260504221508 25 217 1.6 11.3 0.00 0.00 0.00 15 1014.9
20260504220008 25 219 6.4 22.5 0.00 0.00 0.00 15 1014.9
20260504214512 25 139 4.8 16.1 0.00 0.00 0.00 15 1015.0
20260504213007 25 247 6.4 16.1 0.00 0.00 0.00 15 1014.9
20260504211506 25 119 1.6 16.1 0.00 0.00 0.00 15 1015.0
20260504210007 25 134 4.8 16.1 0.00 0.00 0.00 16 1015.0
20260504204502 25 242 3.2 17.7 0.00 0.00 0.00 17 1015.1
20260504203100 26 207 4.8 20.9 0.00 0.00 0.00 14 1015.3
20260504201559 25 219 1.6 19.3 0.00 0.00 0.00 19 1015.5
20260504200057 25 225 1.6 12.9 0.00 0.00 0.00 18 1015.7
20260504194556 25 236 4.8 14.5 0.00 0.00 0.00 19 1016.0
20260504193051 25 121 1.6 14.5 0.00 0.00 0.00 18 1016.3
20260504191548 24 147 6.4 14.5 0.00 0.00 0.00 19 1016.4
20260504190056 24 246 4.8 17.7 0.00 0.00 0.00 18 1016.5
20260504184559 23 132 3.2 16.1 0.00 0.00 0.00 19 1016.6
20260504183050 23 116 6.4 22.5 0.00 0.00 0.00 21 1016.9
20260504181541 23 146 1.6 11.3 0.00 0.00 0.00 22 1017.0
20260504180040 22 238 8.0 17.7 0.00 0.00 0.00 20 1017.2
20260504174536 22 112 4.8 12.9 0.00 0.00 0.00 17 1017.3
20260504173033 22 90 4.8 14.5 0.00 0.00 0.00 17 1017.5
20260504171540 22 118 4.8 17.7 0.00 0.00 0.00 19 1017.7
20260504081530 9 195 0.0 1.6 0.00 0.00 0.00 56 1018.3